Погода в Симферополе

Погода в Симферополе : погода сейчас, прогноз погоды и архив. Всё, что Вы хотите узнать о погоде в Симферополе!

Хотите узнать прогноз погоды в Симферополе? Тогда Вам сюда: Погода в Симферополе

Поиск расширенной информации на нашем сайте:

Другие новости

Новости СМИ2

Главная страница сайта

Новости сайта

03.07.2017

Напоминаем, что на нашем специализированном сайте Метеоцентр.Азия вы можете получить высокодетализированные автоматические прогнозы погоды по пунктам России, СНГ и мира в авиационном формате (включающие направление и скорость ветра, видимость, явления погоды, количество и форму облачности, нижнюю и верхнюю границу облачности).


Погода в Симферополе - сегодня

Время (UTC), дата Ветер
(°,м/с) 
Видим.   Явления Облачность Т
(°С)
Тd
(°С)
f(%) Тe
(°С)
Pmin
(гПа)
dP
(гПа)
Po
(мм)
O2
(г/м3)
Тmin Tmax R s Состояние
почвы
06 15.08.18 050 (СВ) 10 км    ясно 
+26.6 +18.5 61 +42  1013.4  -0.2  745  269  +17.9         
09 15.08.18 070 (В) 8-13{13}  10 км    1/1 1500 м 
[Cu hum]
+33.2 +12.3 28 +38  1012.3  -0.7  744  265           
12 15.08.18 070 (В) 8-14{14}  10 км    1/1 1500 м 
[Cu hum]
+34.2 +11.4 25 +37  1011.2  -1  743  264           
18 15.08.18 070 (В) 5{13}  10 км    ясно 
+26.5 +11.4 39 +30  1012.7  0.8  744  271    +34.8       
21 15.08.18 080 (В) 10 км    ясно 
+22.1 +11.2 50 +25  1013  744  275           
00 16.08.18 050 (СВ) 10 км    ясно 
+20 +11 56 +23  1012.5  -0.6  744  277           
03 16.08.18 080 (В) 10 км    3/0 верхняя 
[Ci fib]
+19.7 +12 61 +24  1011.9  -0.6  743  277  +18.9         
06 16.08.18 050 (СВ) 10 км    8/0 верхняя 
[Ci fib]
+27.7 +16.3 50 +39  1011.4  0.1  743  268  +18.9         
09 16.08.18 070 (В) 9-12{14}  10 км    8/1 1500 м верхняя 
[Cu hum|Ci fib]
+33.7 +10.4 24 +36  1010.9  -0.2  743  265           
12 16.08.18 050 (СВ) 11-15{20}  10 км    8/0 средняя, верхняя 
[Ac cuf|Ci fib]
+34.3 +10.9 24 +37  1010.4  -0.4  743  264           
15 16.08.18 070 (В) 9-13{17}  10 км    6/0 верхняя 
[Ci fib]
+32 +10.7 27 +34  1011  0.4  743  266           
18 16.08.18 080 (В) 3{13}  10 км    ясно 
+25 +11.6 43 +29  1011.6  0.2  743  272    +35.3       
21 16.08.18 060 (СВ) 10 км    ясно 
+21.5 +12.6 57 +27  1011.9  743  275           
00 17.08.18 080 (В) 10 км    ясно 
+20.8 +14.2 66 +28  1011.6  -0.3  743  275           
03 17.08.18 070 (В) 10 км    3/0 верхняя 
[Ci fib]
+19.6 +15.3 76 +29  1011.5  -0.2  743  276  +19.6         
06 17.08.18 050 (СВ) 10 км    3/0 верхняя 
[Ci fib]
+26.9 +17.1 55 +40  1011.1  0.1  743  269  +19.5         
09 17.08.18 060 (СВ) 7-12{12}  10 км    1/1 1500 м 
[Cu hum]
+32.6 +15.2 35 +42  1010.4  -0.3  743  264           
12 17.08.18 040 (СВ) 9-12{13}  10 км    3/0 верхняя 
[Ci fib]
+33 +11.5 27 +36  1010.1  -0.3  743  265           
15 17.08.18 060 (СВ) 9-12{14}  10 км    1/0 верхняя 
[Ci fib]
+30.1 +14.6 39 +38  1009.7  -0.5  742  266           
18 17.08.18 080 (В) 5{13}  10 км    1/0 верхняя 
[Ci fib]
+26.2 +15.3 51 +36  1010.8  0.8  743  270    +33.7       
21 17.08.18 080 (В) 10 км    ясно 
+23.9 +13.2 51 +30  1011  743  273           
00 18.08.18 070 (В) 10 км    ясно 
+19.7 +14.3 71 +28  1011.5  0.2  743  276           
03 18.08.18 070 (В) 10 км    1/0 верхняя 
[Ci fib]
+18.7 +14.2 75 +27  1012.2  0.6  743  277  +18.5         
06 18.08.18 060 (СВ) 10 км    1/0 верхняя 
[Ci fib]
+27.6 +17.2 53 +41  1012.1  0.6  744  268  +18.5         
09 18.08.18 050 (СВ) 8-13{14}  10 км    1/1 1500 м 
[Cu hum]
+33.3 +11.2 26 +36  1012  0.2  744  265           
Время (UTC), дата Ветер
(°,м/с) 
Видим.   Явления Облачность Т
(°С)
Тd
(°С)
f(%) Тe
(°С)
Pmin
(гПа)
dP
(гПа)
Po
(мм)
O2
(г/м3)
Тmin Tmax R s Состояние
почвы

Для получения пояснительной информации подведите курсор к названию столбца.

ПОГОДА в Симферополе - архив

Всё, что Вы хотите узнать о погоде в Симферополе - удобно и подробно!

Выберите нужную дату (начиная с 1 января 2015* года) и нажмите кнопку "Найти".
Будут отображены архивные сводки погоды по пункту Симферополь, начиная с указанной даты.


Отображать данные в формате CSV (для использования в таблицах Excel)


Внимание! Наш архив погоды предназначен исключительно для личного некоммерческого использования в познавательных целях. Если Вам необходимы официальные справки о состоянии погоды (для производственных, юридических, коммерческих и т.п. целей), обращайтесь в органы Росгидромета.

*Примечание: данная дата относится к архиву по метеостанциям СССР (Россия, СНГ, Балтия).
Архив по метеостанциям Зарубежной Европы и Азии (кроме Китая) хранится 10 дней, по другим регионам земного шара (Китай, Африка, Америка, Австралия, Океания) - 1 день.

Симферополь - район местоположения метеостанции


Название, широта, долгота, высота метеостанции:
Симферополь 44.7°ш. 34.1°д. 181 м над ур. моря [Российская Федерация]

Дополнительная информация

В oтличие oт бoльшинства пoгoдных сайтoв мы публикуем пoдрoбную метеoинфoрмацию в детальнoм прoфессиoнальнoм фoрмате.

Характеристики температуры и влажнoсти вoздуха измеряются на высoте 2 м в тени вдали oт зданий и деревьев.
Скoрoсть ветра измеряется на высoте 10 м (на урoвне рoста челoвека скoрoсть ветра ниже в 1.5-2 раза). Если метеoстанция нахoдится в гoрoде или в лесу, тo скoрoсть ветра занижена на 2-4 м/с пo сравнению с oткрытым местoм. Скoрoсть ветра над акватoриями крупных рек и oзёр, а также на вершинах хoлмoв на 2-5 м/с выше, чем в oбычных услoвиях.
Атмoсфернoе давление в разных тoчках местнoсти мoжет значительнo oтличаться oт давления на метеoстанции, в зависимoсти oт услoвий рельефа (при пoдъёме на 10 м давление пoнижается примернo на 1 мм рт.ст.).